Year,Month,Day,Hour,Minute,Value (Times are PST for temperature in C)
2020,07,28,00,00,19.50
2020,07,28,00,01,19.40
2020,07,28,00,02,19.40
2020,07,28,00,03,19.40
2020,07,28,00,04,19.40
2020,07,28,00,05,19.30
2020,07,28,00,06,19.30
2020,07,28,00,07,19.30
2020,07,28,00,08,19.30
2020,07,28,00,09,19.30
2020,07,28,00,10,19.30
2020,07,28,00,11,19.20
2020,07,28,00,12,19.20
2020,07,28,00,13,19.20
2020,07,28,00,14,19.20
2020,07,28,00,15,19.20
2020,07,28,00,16,19.20
2020,07,28,00,17,19.20
2020,07,28,00,18,19.10
2020,07,28,00,19,19.10
2020,07,28,00,20,19.10
2020,07,28,00,21,19.10
2020,07,28,00,22,19.10
2020,07,28,00,23,19.10
2020,07,28,00,24,19.00
2020,07,28,00,25,19.00
2020,07,28,00,26,19.00
2020,07,28,00,27,19.00
2020,07,28,00,28,18.90
2020,07,28,00,29,18.90
2020,07,28,00,30,18.90
2020,07,28,00,31,18.90
2020,07,28,00,32,18.90
2020,07,28,00,33,18.80
2020,07,28,00,34,18.80
2020,07,28,00,35,18.80
2020,07,28,00,36,18.80
2020,07,28,00,37,18.80
2020,07,28,00,38,18.80
2020,07,28,00,39,18.70
2020,07,28,00,40,18.70
2020,07,28,00,41,18.70
2020,07,28,00,42,18.70
2020,07,28,00,43,18.60
2020,07,28,00,44,18.60
2020,07,28,00,45,18.60
2020,07,28,00,46,18.50
2020,07,28,00,47,18.50
2020,07,28,00,48,18.40
2020,07,28,00,49,18.40
2020,07,28,00,50,18.40
2020,07,28,00,51,18.40
2020,07,28,00,52,18.30
2020,07,28,00,53,18.30
2020,07,28,00,54,18.30
2020,07,28,00,55,18.30
2020,07,28,00,56,18.30
2020,07,28,00,57,18.30
2020,07,28,00,58,18.30
2020,07,28,00,59,18.30
2020,07,28,01,00,18.30
2020,07,28,01,01,18.30
2020,07,28,01,02,18.20
2020,07,28,01,03,18.20
2020,07,28,01,04,18.20
2020,07,28,01,05,18.20
2020,07,28,01,06,18.20
2020,07,28,01,07,18.20
2020,07,28,01,08,18.10
2020,07,28,01,09,18.10
2020,07,28,01,10,18.10
2020,07,28,01,11,18.10
2020,07,28,01,12,18.10
2020,07,28,01,13,18.10
2020,07,28,01,14,18.10
2020,07,28,01,15,18.10
2020,07,28,01,16,18.00
2020,07,28,01,17,18.00
2020,07,28,01,18,18.00
2020,07,28,01,19,18.00
2020,07,28,01,20,18.00
2020,07,28,01,21,18.00
2020,07,28,01,22,18.00
2020,07,28,01,23,18.00
2020,07,28,01,24,17.90
2020,07,28,01,25,17.90
2020,07,28,01,26,17.90
2020,07,28,01,27,17.90
2020,07,28,01,28,17.90
2020,07,28,01,29,17.90
2020,07,28,01,30,17.90
2020,07,28,01,31,17.90
2020,07,28,01,32,17.90
2020,07,28,01,33,17.90
2020,07,28,01,34,17.90
2020,07,28,01,35,17.90
2020,07,28,01,36,17.80
2020,07,28,01,37,17.80
2020,07,28,01,38,17.80
2020,07,28,01,39,17.80
2020,07,28,01,40,17.80
2020,07,28,01,41,17.80
2020,07,28,01,42,17.70
2020,07,28,01,43,17.70
2020,07,28,01,44,17.70
2020,07,28,01,45,17.70
2020,07,28,01,46,17.70
2020,07,28,01,47,17.70
2020,07,28,01,48,17.70
2020,07,28,01,49,17.70
2020,07,28,01,50,17.70
2020,07,28,01,51,17.70
2020,07,28,01,52,17.70
2020,07,28,01,53,17.70
2020,07,28,01,54,17.70
2020,07,28,01,55,17.70
2020,07,28,01,56,17.70
2020,07,28,01,57,17.70
2020,07,28,01,58,17.70
2020,07,28,01,59,17.70
2020,07,28,02,00,17.70
2020,07,28,02,01,17.70
2020,07,28,02,02,17.70
2020,07,28,02,03,17.70
2020,07,28,02,04,17.70
2020,07,28,02,05,17.70
2020,07,28,02,06,17.70
2020,07,28,02,07,17.70
2020,07,28,02,08,17.70
2020,07,28,02,09,17.70
2020,07,28,02,10,17.70
2020,07,28,02,11,17.70
2020,07,28,02,12,17.70
2020,07,28,02,13,17.70
2020,07,28,02,14,17.70
2020,07,28,02,15,17.60
2020,07,28,02,16,17.60
2020,07,28,02,17,17.60
2020,07,28,02,18,17.60
2020,07,28,02,19,17.50
2020,07,28,02,20,17.50
2020,07,28,02,21,17.50
2020,07,28,02,22,17.50
2020,07,28,02,23,17.40
2020,07,28,02,24,17.40
2020,07,28,02,25,17.40
2020,07,28,02,26,17.40
2020,07,28,02,27,17.30
2020,07,28,02,28,17.30
2020,07,28,02,29,17.30
2020,07,28,02,30,17.30
2020,07,28,02,31,17.30
2020,07,28,02,32,17.30
2020,07,28,02,33,17.30
2020,07,28,02,34,17.30
2020,07,28,02,35,17.20
2020,07,28,02,36,17.20
2020,07,28,02,37,17.20
2020,07,28,02,38,17.20
2020,07,28,02,39,17.20
2020,07,28,02,40,17.20
2020,07,28,02,41,17.20
2020,07,28,02,42,17.20
2020,07,28,02,43,17.20
2020,07,28,02,44,17.20
2020,07,28,02,45,17.20
2020,07,28,02,46,17.20
2020,07,28,02,47,17.10
2020,07,28,02,48,17.10
2020,07,28,02,49,17.10
2020,07,28,02,50,17.10
2020,07,28,02,51,17.10
2020,07,28,02,52,17.00
2020,07,28,02,53,17.00
2020,07,28,02,54,17.00
2020,07,28,02,55,16.90
2020,07,28,02,56,16.90
2020,07,28,02,57,16.90
2020,07,28,02,58,16.90
2020,07,28,02,59,16.90
2020,07,28,03,00,16.90
2020,07,28,03,01,16.90
2020,07,28,03,02,16.80
2020,07,28,03,03,16.80
2020,07,28,03,04,16.80
2020,07,28,03,05,16.80
2020,07,28,03,06,16.80
2020,07,28,03,07,16.80
2020,07,28,03,08,16.80
2020,07,28,03,09,16.80
2020,07,28,03,10,16.80
2020,07,28,03,11,16.80
2020,07,28,03,12,16.80
2020,07,28,03,13,16.70
2020,07,28,03,14,16.80
2020,07,28,03,15,16.70
2020,07,28,03,16,16.70
2020,07,28,03,17,16.70
2020,07,28,03,18,16.70
2020,07,28,03,19,16.70
2020,07,28,03,20,16.70
2020,07,28,03,21,16.70
2020,07,28,03,22,16.70
2020,07,28,03,23,16.70
2020,07,28,03,24,16.70
2020,07,28,03,25,16.70
2020,07,28,03,26,16.80
2020,07,28,03,27,16.80
2020,07,28,03,28,16.80
2020,07,28,03,29,16.80
2020,07,28,03,30,16.80
2020,07,28,03,31,16.80
2020,07,28,03,32,16.80
2020,07,28,03,33,16.80
2020,07,28,03,34,16.80
2020,07,28,03,35,16.80
2020,07,28,03,36,16.80
2020,07,28,03,37,16.80
2020,07,28,03,38,16.80
2020,07,28,03,39,16.80
2020,07,28,03,40,16.90
2020,07,28,03,41,16.90
2020,07,28,03,42,16.90
2020,07,28,03,43,16.90
2020,07,28,03,44,16.90
2020,07,28,03,45,16.90
2020,07,28,03,46,16.90
2020,07,28,03,47,16.80
2020,07,28,03,48,16.80
2020,07,28,03,49,16.80
2020,07,28,03,50,16.80
2020,07,28,03,51,16.80
2020,07,28,03,52,16.80
2020,07,28,03,53,16.70
2020,07,28,03,54,16.70
2020,07,28,03,55,16.70
2020,07,28,03,56,16.70
2020,07,28,03,57,16.70
2020,07,28,03,58,16.60
2020,07,28,03,59,16.60
2020,07,28,04,00,16.60
2020,07,28,04,01,16.60
2020,07,28,04,02,16.50
2020,07,28,04,03,16.50
2020,07,28,04,04,16.50
2020,07,28,04,05,16.50
2020,07,28,04,06,16.40
2020,07,28,04,07,16.40
2020,07,28,04,08,16.40
2020,07,28,04,09,16.40
2020,07,28,04,10,16.40
2020,07,28,04,11,16.40
2020,07,28,04,12,16.40
2020,07,28,04,13,16.30
2020,07,28,04,14,16.30
2020,07,28,04,15,16.30
2020,07,28,04,16,16.30
2020,07,28,04,17,16.30
2020,07,28,04,18,16.30
2020,07,28,04,19,16.30
2020,07,28,04,20,16.30
2020,07,28,04,21,16.20
2020,07,28,04,22,16.20
2020,07,28,04,23,16.20
2020,07,28,04,24,16.20
2020,07,28,04,25,16.20
2020,07,28,04,26,16.20
2020,07,28,04,27,16.20
2020,07,28,04,28,16.20
2020,07,28,04,29,16.20
2020,07,28,04,30,16.20
2020,07,28,04,31,16.10
2020,07,28,04,32,16.10
2020,07,28,04,33,16.10
2020,07,28,04,34,16.10
2020,07,28,04,35,16.10
2020,07,28,04,36,16.10
2020,07,28,04,37,16.00
2020,07,28,04,38,16.00
2020,07,28,04,39,16.00
2020,07,28,04,40,16.00
2020,07,28,04,41,16.00
2020,07,28,04,42,15.90
2020,07,28,04,43,15.90
2020,07,28,04,44,15.90
2020,07,28,04,45,15.90
2020,07,28,04,46,15.90
2020,07,28,04,47,15.80
2020,07,28,04,48,15.80
2020,07,28,04,49,15.80
2020,07,28,04,50,15.80
2020,07,28,04,51,15.80
2020,07,28,04,52,15.80
2020,07,28,04,53,15.80
2020,07,28,04,54,15.80
2020,07,28,04,55,15.80
2020,07,28,04,56,15.80
2020,07,28,04,57,15.80
2020,07,28,04,58,15.80
2020,07,28,04,59,15.80
2020,07,28,05,00,15.80
2020,07,28,05,01,15.80
2020,07,28,05,02,15.80
2020,07,28,05,03,15.80
2020,07,28,05,04,15.80
2020,07,28,05,05,15.80
2020,07,28,05,06,15.80
2020,07,28,05,07,15.80
2020,07,28,05,08,15.80
2020,07,28,05,09,15.80
2020,07,28,05,10,15.90
2020,07,28,05,11,15.90
2020,07,28,05,12,15.90
2020,07,28,05,13,15.90
2020,07,28,05,14,15.90
2020,07,28,05,15,15.90
2020,07,28,05,16,15.90
2020,07,28,05,17,15.90
2020,07,28,05,18,15.90
2020,07,28,05,19,15.90
2020,07,28,05,20,15.90
2020,07,28,05,21,15.90
2020,07,28,05,22,15.90
2020,07,28,05,23,15.90
2020,07,28,05,24,15.90
2020,07,28,05,25,15.90
2020,07,28,05,26,15.90
2020,07,28,05,27,15.80
2020,07,28,05,28,15.80
2020,07,28,05,29,15.80
2020,07,28,05,30,15.80
2020,07,28,05,31,15.80
2020,07,28,05,32,15.80
2020,07,28,05,33,15.80
2020,07,28,05,34,15.80
2020,07,28,05,35,15.80
2020,07,28,05,36,15.70
2020,07,28,05,37,15.70
2020,07,28,05,38,15.70
2020,07,28,05,39,15.70
2020,07,28,05,40,15.70
2020,07,28,05,41,15.60
2020,07,28,05,42,15.60
2020,07,28,05,43,15.60
2020,07,28,05,44,15.60
2020,07,28,05,45,15.70
2020,07,28,05,46,15.70
2020,07,28,05,47,15.70
2020,07,28,05,48,15.70
2020,07,28,05,49,15.70
2020,07,28,05,50,15.70
2020,07,28,05,51,15.70
2020,07,28,05,52,15.60
2020,07,28,05,53,15.60
2020,07,28,05,54,15.60
2020,07,28,05,55,15.60
2020,07,28,05,56,15.60
2020,07,28,05,57,15.60
2020,07,28,05,58,15.60
2020,07,28,05,59,15.50
2020,07,28,06,00,15.50
2020,07,28,06,01,15.40
2020,07,28,06,02,15.40
2020,07,28,06,03,15.40
2020,07,28,06,04,15.40
2020,07,28,06,05,15.40
2020,07,28,06,06,15.40
2020,07,28,06,07,15.40
2020,07,28,06,08,15.40
2020,07,28,06,09,15.40
2020,07,28,06,10,15.40
2020,07,28,06,11,15.40
2020,07,28,06,12,15.40
2020,07,28,06,13,15.40
2020,07,28,06,14,15.40
2020,07,28,06,15,15.40
2020,07,28,06,16,15.40
2020,07,28,06,17,15.40
2020,07,28,06,18,15.40
2020,07,28,06,19,15.40
2020,07,28,06,20,15.40
2020,07,28,06,21,15.40
2020,07,28,06,22,15.40
2020,07,28,06,23,15.40
2020,07,28,06,24,15.40
2020,07,28,06,25,15.40
2020,07,28,06,26,15.50
2020,07,28,06,27,15.50
2020,07,28,06,28,15.60
2020,07,28,06,29,15.60
2020,07,28,06,30,15.60
2020,07,28,06,31,15.60
2020,07,28,06,32,15.60
2020,07,28,06,33,15.70
2020,07,28,06,34,15.70
2020,07,28,06,35,15.70
2020,07,28,06,36,15.70
2020,07,28,06,37,15.70
2020,07,28,06,38,15.70
2020,07,28,06,39,15.70
2020,07,28,06,40,15.70
2020,07,28,06,41,15.70
2020,07,28,06,42,15.70
2020,07,28,06,43,15.70
2020,07,28,06,44,15.70
2020,07,28,06,45,15.80
2020,07,28,06,46,15.80
2020,07,28,06,47,15.80
2020,07,28,06,48,15.80
2020,07,28,06,49,15.80
2020,07,28,06,50,15.80
2020,07,28,06,51,15.80
2020,07,28,06,52,15.80
2020,07,28,06,53,15.80
2020,07,28,06,54,15.80
2020,07,28,06,55,15.80
2020,07,28,06,56,15.80
2020,07,28,06,57,15.80
2020,07,28,06,58,15.90
2020,07,28,06,59,15.90
2020,07,28,07,00,15.90
2020,07,28,07,01,15.90
2020,07,28,07,02,15.90
2020,07,28,07,03,16.00
2020,07,28,07,04,16.00
2020,07,28,07,05,16.10
2020,07,28,07,06,16.10
2020,07,28,07,07,16.10
2020,07,28,07,08,16.10
2020,07,28,07,09,16.10
2020,07,28,07,10,16.10
2020,07,28,07,11,16.20
2020,07,28,07,12,16.20
2020,07,28,07,13,16.20
2020,07,28,07,14,16.20
2020,07,28,07,15,16.20
2020,07,28,07,16,16.20
2020,07,28,07,17,16.30
2020,07,28,07,18,16.30
2020,07,28,07,19,16.30
2020,07,28,07,20,16.30
2020,07,28,07,21,16.30
2020,07,28,07,22,16.30
2020,07,28,07,23,16.30
2020,07,28,07,24,16.30
2020,07,28,07,25,16.30
2020,07,28,07,26,16.40
2020,07,28,07,27,16.40
2020,07,28,07,28,16.40
2020,07,28,07,29,16.40
2020,07,28,07,30,16.40
2020,07,28,07,31,16.40
2020,07,28,07,32,16.40
2020,07,28,07,33,16.50
2020,07,28,07,34,16.50
2020,07,28,07,35,16.50
2020,07,28,07,36,16.50
2020,07,28,07,37,16.50
2020,07,28,07,38,16.50
2020,07,28,07,39,16.40
2020,07,28,07,40,16.40
2020,07,28,07,41,16.30
2020,07,28,07,42,16.30
2020,07,28,07,43,16.20
2020,07,28,07,44,16.20
2020,07,28,07,45,16.10
2020,07,28,07,46,16.00
2020,07,28,07,47,15.90
2020,07,28,07,48,15.90
2020,07,28,07,49,15.80
2020,07,28,07,50,15.80
2020,07,28,07,51,15.70
2020,07,28,07,52,15.70
2020,07,28,07,53,15.70
2020,07,28,07,54,15.70
2020,07,28,07,55,15.70
2020,07,28,07,56,15.60
2020,07,28,07,57,15.60
2020,07,28,07,58,15.60
2020,07,28,07,59,15.60
2020,07,28,08,00,15.60
2020,07,28,08,01,15.60
2020,07,28,08,02,15.70
2020,07,28,08,03,15.70
2020,07,28,08,04,15.60
2020,07,28,08,05,15.60
2020,07,28,08,06,15.70
2020,07,28,08,07,15.70
2020,07,28,08,08,15.70
2020,07,28,08,09,15.70
2020,07,28,08,10,15.70
2020,07,28,08,11,15.70
2020,07,28,08,12,15.80
2020,07,28,08,13,15.80
2020,07,28,08,14,15.80
2020,07,28,08,15,15.80
2020,07,28,08,16,15.80
2020,07,28,08,17,15.80
2020,07,28,08,18,15.70
2020,07,28,08,19,15.70
2020,07,28,08,20,15.70
2020,07,28,08,21,15.70
2020,07,28,08,22,15.80
2020,07,28,08,23,15.80
2020,07,28,08,24,15.90
2020,07,28,08,25,15.90
2020,07,28,08,26,16.00
2020,07,28,08,27,16.00
2020,07,28,08,28,16.10
2020,07,28,08,29,16.10
2020,07,28,08,30,16.10
2020,07,28,08,31,16.10
2020,07,28,08,32,16.10
2020,07,28,08,33,16.10
2020,07,28,08,34,16.00
2020,07,28,08,35,16.00
2020,07,28,08,36,16.00
2020,07,28,08,37,15.90
2020,07,28,08,38,16.00
2020,07,28,08,39,16.00
2020,07,28,08,40,16.00
2020,07,28,08,41,16.00
2020,07,28,08,42,16.10
2020,07,28,08,43,16.10
2020,07,28,08,44,16.20
2020,07,28,08,45,16.20
2020,07,28,08,46,16.30
2020,07,28,08,47,16.30
2020,07,28,08,48,16.30
2020,07,28,08,49,16.40
2020,07,28,08,50,16.40
2020,07,28,08,51,16.40
2020,07,28,08,52,16.50
2020,07,28,08,53,16.50
2020,07,28,08,54,16.60
2020,07,28,08,55,16.60
2020,07,28,08,56,16.70
2020,07,28,08,57,16.70
2020,07,28,08,58,16.70
2020,07,28,08,59,16.70
2020,07,28,09,00,16.70
2020,07,28,09,01,16.80
2020,07,28,09,02,16.80
2020,07,28,09,03,16.80
2020,07,28,09,04,16.80
2020,07,28,09,05,16.80
2020,07,28,09,06,16.80
2020,07,28,09,07,16.90
2020,07,28,09,08,16.90
2020,07,28,09,09,16.90
2020,07,28,09,10,17.00
2020,07,28,09,11,17.00
2020,07,28,09,12,17.00
2020,07,28,09,13,17.10
2020,07,28,09,14,17.10
2020,07,28,09,15,17.10
2020,07,28,09,16,17.10
2020,07,28,09,17,17.20
2020,07,28,09,18,17.20
2020,07,28,09,19,17.20
2020,07,28,09,20,17.20
2020,07,28,09,21,17.30
2020,07,28,09,22,17.30
2020,07,28,09,23,17.40
2020,07,28,09,24,17.40
2020,07,28,09,25,17.50
2020,07,28,09,26,17.50
2020,07,28,09,27,17.60
2020,07,28,09,28,17.70
2020,07,28,09,29,17.70
2020,07,28,09,30,17.80
2020,07,28,09,31,17.80
2020,07,28,09,32,17.90
2020,07,28,09,33,18.00
2020,07,28,09,34,18.10
2020,07,28,09,35,18.10
2020,07,28,09,36,18.20
2020,07,28,09,37,18.30
2020,07,28,09,38,18.30
2020,07,28,09,39,18.40
2020,07,28,09,40,18.40
2020,07,28,09,41,18.50
2020,07,28,09,42,18.50
2020,07,28,09,43,18.50
2020,07,28,09,44,18.50
2020,07,28,09,45,18.60
2020,07,28,09,46,18.70
2020,07,28,09,47,18.60
2020,07,28,09,48,18.60
2020,07,28,09,49,18.60
2020,07,28,09,50,18.60
2020,07,28,09,51,18.60
2020,07,28,09,52,18.60
2020,07,28,09,53,18.60
2020,07,28,09,54,18.60
2020,07,28,09,55,18.60
2020,07,28,09,56,18.60
2020,07,28,09,57,18.60
2020,07,28,09,58,18.60
2020,07,28,09,59,18.60
2020,07,28,10,00,18.70
2020,07,28,10,01,18.70
2020,07,28,10,02,18.70
2020,07,28,10,03,18.60
2020,07,28,10,04,18.60
2020,07,28,10,05,18.60
2020,07,28,10,06,18.50
2020,07,28,10,07,18.50
2020,07,28,10,08,18.50
2020,07,28,10,09,18.50
2020,07,28,10,10,18.50
2020,07,28,10,11,18.50
2020,07,28,10,12,18.50
2020,07,28,10,13,18.50
2020,07,28,10,14,18.50
2020,07,28,10,15,18.50
2020,07,28,10,16,18.60
2020,07,28,10,17,18.60
2020,07,28,10,18,18.60
2020,07,28,10,19,18.60
2020,07,28,10,20,18.70
2020,07,28,10,21,18.80
2020,07,28,10,22,18.80
2020,07,28,10,23,18.80
2020,07,28,10,24,18.80
2020,07,28,10,25,18.70
2020,07,28,10,26,18.70
2020,07,28,10,27,18.70
2020,07,28,10,28,18.60
2020,07,28,10,29,18.60
2020,07,28,10,30,18.60
2020,07,28,10,31,18.60
2020,07,28,10,32,18.60
2020,07,28,10,33,18.60
2020,07,28,10,34,18.60
2020,07,28,10,35,18.50
2020,07,28,10,36,18.50
2020,07,28,10,37,18.60
2020,07,28,10,38,18.60
2020,07,28,10,39,18.60
2020,07,28,10,40,18.70
2020,07,28,10,41,18.70
2020,07,28,10,42,18.80
2020,07,28,10,43,18.80
2020,07,28,10,44,18.80
2020,07,28,10,45,18.90
2020,07,28,10,46,18.90
2020,07,28,10,47,18.90
2020,07,28,10,48,19.00
2020,07,28,10,49,19.00
2020,07,28,10,50,19.10
2020,07,28,10,51,19.10
2020,07,28,10,52,19.10
2020,07,28,10,53,19.20
2020,07,28,10,54,19.20
2020,07,28,10,55,19.20
2020,07,28,10,56,19.30
2020,07,28,10,57,19.30
2020,07,28,10,58,19.30
2020,07,28,10,59,19.30
2020,07,28,11,00,19.40
2020,07,28,11,01,19.40
2020,07,28,11,02,19.40
2020,07,28,11,03,19.40
2020,07,28,11,04,19.40
2020,07,28,11,05,19.50
2020,07,28,11,06,19.50
2020,07,28,11,07,19.50
2020,07,28,11,08,19.50
2020,07,28,11,09,19.40
2020,07,28,11,10,19.40
2020,07,28,11,11,19.40
2020,07,28,11,12,19.40
2020,07,28,11,13,19.40
2020,07,28,11,14,19.40
2020,07,28,11,15,19.40
2020,07,28,11,16,19.30
2020,07,28,11,17,19.30
2020,07,28,11,18,19.30
2020,07,28,11,19,19.20
2020,07,28,11,20,19.20
2020,07,28,11,21,19.20
2020,07,28,11,22,19.20
2020,07,28,11,23,19.20
2020,07,28,11,24,19.20
2020,07,28,11,25,19.20
2020,07,28,11,26,19.10
2020,07,28,11,27,19.00
2020,07,28,11,28,18.90
2020,07,28,11,29,18.80
2020,07,28,11,30,18.80
2020,07,28,11,31,18.70
2020,07,28,11,32,18.70
2020,07,28,11,33,18.70
2020,07,28,11,34,18.70
2020,07,28,11,35,18.70
2020,07,28,11,36,18.80
2020,07,28,11,37,18.80
2020,07,28,11,38,18.90
2020,07,28,11,39,19.00
2020,07,28,11,40,19.00
2020,07,28,11,41,19.10
2020,07,28,11,42,19.20
2020,07,28,11,43,19.30
2020,07,28,11,44,19.30
2020,07,28,11,45,19.40
2020,07,28,11,46,19.40
2020,07,28,11,47,19.40
2020,07,28,11,48,19.40
2020,07,28,11,49,19.40
2020,07,28,11,50,19.40
2020,07,28,11,51,19.50
2020,07,28,11,52,19.50
2020,07,28,11,53,19.50
2020,07,28,11,54,19.60
2020,07,28,11,55,19.60
2020,07,28,11,56,19.70
2020,07,28,11,57,19.80
2020,07,28,11,58,19.80
2020,07,28,11,59,19.80
2020,07,28,12,00,19.90
2020,07,28,12,01,19.90
2020,07,28,12,02,19.90
2020,07,28,12,03,19.90
2020,07,28,12,04,19.90
2020,07,28,12,05,20.00
2020,07,28,12,06,20.00
2020,07,28,12,07,20.00
2020,07,28,12,08,20.00
2020,07,28,12,09,20.00
2020,07,28,12,10,20.00
2020,07,28,12,11,19.90
2020,07,28,12,12,19.80
2020,07,28,12,13,19.70
2020,07,28,12,14,19.60
2020,07,28,12,15,19.50
2020,07,28,12,16,19.40
2020,07,28,12,17,19.30
2020,07,28,12,18,19.20
2020,07,28,12,19,19.10
2020,07,28,12,20,19.00
2020,07,28,12,21,19.00
2020,07,28,12,22,19.00
2020,07,28,12,23,19.10
2020,07,28,12,24,19.20
2020,07,28,12,25,19.30
2020,07,28,12,26,19.40
2020,07,28,12,27,19.50
2020,07,28,12,28,19.60
2020,07,28,12,29,19.70
2020,07,28,12,30,19.80
2020,07,28,12,31,19.80
2020,07,28,12,32,19.90
2020,07,28,12,33,19.90
2020,07,28,12,34,19.90
2020,07,28,12,35,19.90
2020,07,28,12,36,19.90
2020,07,28,12,37,20.00
2020,07,28,12,38,20.00
2020,07,28,12,39,20.00
2020,07,28,12,40,20.10
2020,07,28,12,41,20.10
2020,07,28,12,42,20.10
2020,07,28,12,43,20.10
2020,07,28,12,44,20.10
2020,07,28,12,45,20.20
2020,07,28,12,46,20.20
2020,07,28,12,47,20.20
2020,07,28,12,48,20.20
2020,07,28,12,49,20.20
2020,07,28,12,50,20.20
2020,07,28,12,51,20.20
2020,07,28,12,52,20.20
2020,07,28,12,53,20.20
2020,07,28,12,54,20.20
2020,07,28,12,55,20.10
2020,07,28,12,56,20.10
2020,07,28,12,57,20.10
2020,07,28,12,58,20.00
2020,07,28,12,59,19.90
2020,07,28,13,00,19.90
2020,07,28,13,01,19.80
2020,07,28,13,02,19.70
2020,07,28,13,03,19.60
2020,07,28,13,04,19.50
2020,07,28,13,05,19.40
2020,07,28,13,06,19.40
2020,07,28,13,07,19.30
2020,07,28,13,08,19.40
2020,07,28,13,09,19.40
2020,07,28,13,10,19.60
2020,07,28,13,11,19.70
2020,07,28,13,12,19.80
2020,07,28,13,13,19.90
2020,07,28,13,14,20.00
2020,07,28,13,15,20.10
2020,07,28,13,16,20.10
2020,07,28,13,17,20.20
2020,07,28,13,18,20.30
2020,07,28,13,19,20.30
2020,07,28,13,20,20.40
2020,07,28,13,21,20.50
2020,07,28,13,22,20.60
2020,07,28,13,23,20.60
2020,07,28,13,24,20.70
2020,07,28,13,25,20.70
2020,07,28,13,26,20.80
2020,07,28,13,27,20.80
2020,07,28,13,28,20.80
2020,07,28,13,29,20.80
2020,07,28,13,30,20.80
2020,07,28,13,31,20.90
2020,07,28,13,32,20.90
2020,07,28,13,33,21.00
2020,07,28,13,34,21.00
2020,07,28,13,35,21.00
2020,07,28,13,36,20.90
2020,07,28,13,37,20.90
2020,07,28,13,38,21.00
2020,07,28,13,39,20.90
2020,07,28,13,40,20.90
2020,07,28,13,41,20.90
2020,07,28,13,42,20.90
2020,07,28,13,43,20.90
2020,07,28,13,44,20.80
2020,07,28,13,45,20.80
2020,07,28,13,46,20.80
2020,07,28,13,47,20.70
2020,07,28,13,48,20.60
2020,07,28,13,49,20.60
2020,07,28,13,50,20.60
2020,07,28,13,51,20.50
2020,07,28,13,52,20.50
2020,07,28,13,53,20.50
2020,07,28,13,54,20.60
2020,07,28,13,55,20.50
2020,07,28,13,56,20.50
2020,07,28,13,57,20.50
2020,07,28,13,58,20.50
2020,07,28,13,59,20.50
2020,07,28,14,00,20.50
2020,07,28,14,01,20.50
2020,07,28,14,02,20.60
2020,07,28,14,03,20.60
2020,07,28,14,04,20.60
2020,07,28,14,05,20.60
2020,07,28,14,06,20.60
2020,07,28,14,07,20.60
2020,07,28,14,08,20.50
2020,07,28,14,09,20.50
2020,07,28,14,10,20.50
2020,07,28,14,11,20.50
2020,07,28,14,12,20.50
2020,07,28,14,13,20.50
2020,07,28,14,14,20.40
2020,07,28,14,15,20.40
2020,07,28,14,16,20.30
2020,07,28,14,17,20.30
2020,07,28,14,18,20.30
2020,07,28,14,19,20.30
2020,07,28,14,20,20.20
2020,07,28,14,21,20.30
2020,07,28,14,22,20.30
2020,07,28,14,23,20.30
2020,07,28,14,24,20.30
2020,07,28,14,25,20.30
2020,07,28,14,26,20.20
2020,07,28,14,27,20.20
2020,07,28,14,28,20.30
2020,07,28,14,29,20.30
2020,07,28,14,30,20.30
2020,07,28,14,31,20.30
2020,07,28,14,32,20.30
2020,07,28,14,33,20.30
2020,07,28,14,34,20.30
2020,07,28,14,35,20.30
2020,07,28,14,36,20.40
2020,07,28,14,37,20.40
2020,07,28,14,38,20.40
2020,07,28,14,39,20.50
2020,07,28,14,40,20.60
2020,07,28,14,41,20.60
2020,07,28,14,42,20.70
2020,07,28,14,43,20.70
2020,07,28,14,44,20.70
2020,07,28,14,45,20.70
2020,07,28,14,46,20.80
2020,07,28,14,47,20.80
2020,07,28,14,48,20.80
2020,07,28,14,49,20.80
2020,07,28,14,50,20.90
2020,07,28,14,51,20.90
2020,07,28,14,52,20.90
2020,07,28,14,53,20.90
2020,07,28,14,54,20.90
2020,07,28,14,55,20.90
2020,07,28,14,56,20.90
2020,07,28,14,57,20.90
2020,07,28,14,58,20.90
2020,07,28,14,59,21.70
2020,07,28,15,00,21.80
2020,07,28,15,01,21.80
2020,07,28,15,02,21.90
2020,07,28,15,03,22.10
2020,07,28,15,04,22.20
2020,07,28,15,05,22.20
2020,07,28,15,06,22.30
2020,07,28,15,07,22.30
2020,07,28,15,08,22.50
2020,07,28,15,09,22.50
2020,07,28,15,10,22.60
2020,07,28,15,11,22.70
2020,07,28,15,12,22.80
2020,07,28,15,13,22.90
2020,07,28,15,14,23.00
2020,07,28,15,15,23.00
2020,07,28,15,16,23.20
2020,07,28,15,17,23.20
2020,07,28,15,18,23.20
2020,07,28,15,19,23.30
2020,07,28,15,20,23.30
2020,07,28,15,21,23.30
2020,07,28,15,22,23.30
2020,07,28,15,23,23.40
2020,07,28,15,24,23.40
2020,07,28,15,25,23.40
2020,07,28,15,26,23.40
2020,07,28,15,27,23.40
2020,07,28,15,28,23.50
2020,07,28,15,29,23.50
2020,07,28,15,30,23.60
2020,07,28,15,31,23.60
2020,07,28,15,32,23.70
2020,07,28,15,33,23.70
2020,07,28,15,34,23.70
2020,07,28,15,35,23.70
2020,07,28,15,36,23.60
2020,07,28,15,37,23.60
2020,07,28,15,38,23.60
2020,07,28,15,39,23.60
2020,07,28,15,40,23.60
2020,07,28,15,41,23.60
2020,07,28,15,42,23.60
2020,07,28,15,43,23.60
2020,07,28,15,44,23.70
2020,07,28,15,45,23.70
2020,07,28,15,46,23.70
2020,07,28,15,47,23.70
2020,07,28,15,48,23.80
2020,07,28,15,49,23.80
2020,07,28,15,50,23.80
2020,07,28,15,51,23.90
2020,07,28,15,52,23.90
2020,07,28,15,53,23.90
2020,07,28,15,54,23.90
2020,07,28,15,55,23.90
2020,07,28,15,56,24.00
2020,07,28,15,57,24.00
2020,07,28,15,58,24.00
2020,07,28,15,59,24.00
2020,07,28,16,00,24.00
2020,07,28,16,01,24.00
2020,07,28,16,02,24.00
2020,07,28,16,03,24.00
2020,07,28,16,04,24.00
2020,07,28,16,05,24.00
2020,07,28,16,06,24.00
2020,07,28,16,07,24.00
2020,07,28,16,08,23.90
2020,07,28,16,09,23.90
2020,07,28,16,10,23.80
2020,07,28,16,11,23.80
2020,07,28,16,12,23.80
2020,07,28,16,13,23.70
2020,07,28,16,14,23.60
2020,07,28,16,15,23.50
2020,07,28,16,16,23.30
2020,07,28,16,17,23.10
2020,07,28,16,18,22.90
2020,07,28,16,19,22.70
2020,07,28,16,20,22.60
2020,07,28,16,21,22.50
2020,07,28,16,22,22.50
2020,07,28,16,23,22.50
2020,07,28,16,24,22.40
2020,07,28,16,25,22.30
2020,07,28,16,26,22.30
2020,07,28,16,27,22.20
2020,07,28,16,28,22.10
2020,07,28,16,29,22.10
2020,07,28,16,30,22.00
2020,07,28,16,31,22.00
2020,07,28,16,32,22.00
2020,07,28,16,33,22.10
2020,07,28,16,34,22.10
2020,07,28,16,35,22.10
2020,07,28,16,36,22.10
2020,07,28,16,37,22.20
2020,07,28,16,38,22.30
2020,07,28,16,39,22.50
2020,07,28,16,40,22.60
2020,07,28,16,41,22.70
2020,07,28,16,42,22.70
2020,07,28,16,43,22.70
2020,07,28,16,44,22.70
2020,07,28,16,45,22.80
2020,07,28,16,46,22.80
2020,07,28,16,47,22.90
2020,07,28,16,48,22.90
2020,07,28,16,49,23.00
2020,07,28,16,50,23.10
2020,07,28,16,51,23.10
2020,07,28,16,52,23.20
2020,07,28,16,53,23.20
2020,07,28,16,54,23.20
2020,07,28,16,55,23.20
2020,07,28,16,56,23.20
2020,07,28,16,57,23.30
2020,07,28,16,58,23.30
2020,07,28,16,59,23.40
2020,07,28,17,00,23.50
2020,07,28,17,01,23.50
2020,07,28,17,02,23.60
2020,07,28,17,03,23.60
2020,07,28,17,04,23.70
2020,07,28,17,05,23.70
2020,07,28,17,06,23.70
2020,07,28,17,07,23.80
2020,07,28,17,08,23.80
2020,07,28,17,09,23.80
2020,07,28,17,10,23.80
2020,07,28,17,11,23.90
2020,07,28,17,12,23.90
2020,07,28,17,13,23.90
2020,07,28,17,14,23.80
2020,07,28,17,15,23.80
2020,07,28,17,16,23.80
2020,07,28,17,17,23.70
2020,07,28,17,18,23.70
2020,07,28,17,19,23.70